Погода в Атлантик-Сити

США     39°21′34″N   74°26′02″W
темп.,
°C
ветер,
м/с
пор.,
м/с
влажн.,
%
обл.,
%
осадки,
мм/ч
давл.,
гПа
погр.,
м
10 апреля, сб
сб1023:00+11вюв46905 0.1 101974
02:00+11вюв4592100 0.3 101873
05:00+11вюв4696100 1.1 101779
08:00+11вюв4595100 1.3 101762
11:00+11юв3595100 0.1 101773
14:00+12юв469540 0.1 101589
17:00+12юв3396100 0.0 101249
20:00+12юв4598100 0.0 101164
11 апреля, вс
вс1123:00+12ююв5799100 0.0 100977
02:00+12ю4697100 0.0 100763
05:00+13ю4596100 0.5 100449
08:00+12ю45100100 3.1 100458
11:00+12юв45100100 1.4 100364
14:00+12юв339995 1.4 100244
17:00+13вюв349899 0.1 100140
20:00+13вюв3599100 0.8 100279
12 апреля, пн
пн1223:00+13ю4499100 3.5 100280
02:00+12св2299100 3.8 100226
05:00+11с469969 0.3 1003129
08:00+10с5794100 0.4 1005341
11:00+11с468857 0.1 1006153
14:00+12св788434 0.1 1006207
17:00+10св998616 0.8 1008400
20:00+9св998653 0.8 1010462
13 апреля, вт
вт1323:00+9св998688 0.0 1011503
02:00+9всв888597 0.0 1011538
05:00+9в5584100 0.1 1011574
08:00+9в5586100 0.1 1011485
11:00+10всв4487100 0.0 1011447
14:00+9всв5489100 0.7 1011408
17:00+9всв448998 0.3 1011334
20:00+9св668840 0.4 1011374
14 апреля, ср
ср1423:00+9св448740 0.0 1011308
02:00+8ссв4488100 0.1 1011386
05:00+8ссв4489100 0.8 1011392
08:00+8ссв5688100 0.9 1012470
11:00+8с5689100 1.4 1013496
14:00+8ссв6784100 3.3 10131027
17:00+8ссв7884100 1.0 1014916
20:00+8ссв8987100 1.8 1016977